Cloud_Cover
0 0 0 0 0 0 0 0 0 0 0 0 0 0 0 0 0 5 1 78 16 64 100 98 5 9 5 5 5 5 5 5 29 89 66 5 5 4 0 0 17 25 6 14 46 95 7 0 0
0 0 0 0 0 0 0 0 0 0 0 0 0 0 0 0 0 0 6 0 26 58 100 74 9 5 5 5 5 5 5 3 4 88 89 5 5 5 9 1 4 27 23 26 59 18 3 0 0
0 0 0 0 0 0 0 0 0 0 0 0 0 0 0 0 0 0 0 48 50 81 94 100 5 15 6 5 5 5 5 6 5 8 6 5 5 33 12 1 2 3 2 0 2 0 0 2 0
5 1 0 0 0 0 0 0 0 0 0 0 0 0 0 0 0 0 48 64 48 68 92 100 22 2 8 5 6 64 52 5 5 5 5 5 5 12 59 10 4 0 1 3 5 0 0 0 3
5 18 3 1 0 0 0 0 0 0 0 0 0 0 0 0 0 0 43 88 91 97 72 37 6 0 0 5 5 5 5 5 8 5 5 5 11 8 27 65 48 12 5 5 10 10 3 1 79
5 5 56 74 1 0 0 0 0 0 0 0 0 0 0 0 0 0 3 100 18 79 94 73 63 34 0 0 1 5 5 5 4 2 3 5 19 87 16 10 80 76 48 55 16 7 5 5 1
5 5 5 7 5 4 0 0 0 0 0 0 0 0 0 0 0 0 0 37 78 86 80 100 98 6 0 0 0 5 5 5 0 7 5 5 5 60 51 41 5 5 100 77 83 83 21 29 6
5 6 5 5 4 5 0 0 0 0 0 0 0 0 0 0 0 0 0 0 10 100 94 100 100 54 44 16 0 5 41 100 100 100 100 79 7 5 57 84 4 2 92 92 100 12 32 100 39
0 4 4 5 18 1 13 0 0 0 0 0 0 0 0 0 0 0 0 0 0 85 100 90 100 100 99 88 22 54 100 100 100 100 100 99 26 30 55 7 1 4 5 5 5 79 72 100 100
0 0 0 3 31 5 5 5 0 0 0 2 0 0 0 0 0 0 0 0 0 0 59 100 99 75 19 81 57 96 100 100 100 100 100 100 100 100 100 99 9 5 3 5 5 96 54 100 100
0 0 0 0 4 5 22 11 5 0 0 0 0 0 0 0 0 0 0 0 0 0 0 0 0 0 0 7 94 100 100 100 100 100 100 100 100 100 39 82 100 97 14 2 4 32 12 48 98
1 0 0 0 0 5 5 5 5 5 0 0 0 0 0 0 0 0 0 0 0 0 0 0 0 0 0 20 100 100 100 100 100 100 100 100 100 100 100 100 100 100 100 4 0 5 55 31 57
100 39 5 0 0 0 5 5 5 2 4 0 0 0 0 0 0 0 0 0 0 0 0 0 0 0 0 5 100 100 100 100 100 100 100 100 100 100 77 100 63 86 38 27 35 9 9 6 50
100 99 41 2 0 0 0 4 1 5 5 0 0 0 0 0 0 0 0 0 0 0 0 0 0 0 0 5 97 100 100 100 100 100 100 100 100 100 100 100 93 81 33 34 63 70 78 86 94
98 100 100 18 0 0 0 0 0 0 5 5 0 0 0 0 0 0 0 0 0 0 0 0 0 0 0 0 16 28 85 100 100 100 100 100 100 100 100 100 98 30 98 100 97 11 13 41 91
37 86 99 26 15 0 0 0 0 0 0 5 0 0 0 0 0 0 0 0 0 0 0 0 0 0 0 0 4 5 38 99 100 100 100 100 100 100 100 100 100 100 100 100 100 56 5 7 15
100 100 70 5 5 0 0 0 0 0 0 0 1 0 0 0 0 0 0 0 0 0 0 0 0 0 0 0 0 0 0 4 100 100 100 100 100 100 100 100 100 100 100 100 99 70 5 11 5
100 100 50 5 3 2 0 0 0 0 0 0 0 0 0 0 0 0 0 0 0 0 0 0 0 0 0 0 0 0 0 0 1 100 100 100 100 100 100 100 100 100 100 100 65 5 23 27 16
100 96 88 76 27 5 4 0 0 0 0 0 0 0 0 0 0 2 0 0 0 0 0 0 0 0 0 0 0 0 0 0 0 5 100 100 100 100 100 100 100 100 100 100 100 100 72 44 7
12 5 5 5 5 1 0 0 0 0 0 0 0 0 2 5 1 0 0 0 0 0 0 0 0 0 0 0 0 0 0 0 0 0 0 30 100 100 100 100 100 69 49 100 100 98 98 92 81
100 16 5 3 5 4 5 0 0 0 0 0 0 0 0 4 1 1 0 0 0 0 0 0 0 0 0 0 0 0 0 0 0 0 0 0 0 10 100 100 98 96 99 64 59 32 8 50 8
5 4 5 5 69 69 51 15 0 0 0 0 0 5 5 5 5 5 5 1 0 0 0 0 0 0 0 0 0 0 0 0 0 0 0 0 0 0 21 66 68 79 100 100 51 61 32 54 5
5 5 6 81 100 100 17 70 0 0 0 4 35 22 5 5 5 43 70 52 47 33 0 0 0 0 0 0 0 0 0 0 0 0 0 0 0 0 22 76 100 100 100 100 100 83 69 39 98
5 27 78 98 87 97 25 60 44 6 5 4 5 4 7 11 61 82 83 98 100 100 92 5 0 0 11 0 0 0 0 0 0 0 0 0 0 0 0 46 70 100 100 100 100 100 69 25 67
88 71 61 88 99 88 99 84 90 89 98 78 100 89 100 97 100 100 100 100 100 100 100 72 12 2 0 0 0 0 0 0 0 0 0 0 0 0 0 5 81 65 100 100 100 100 100 95 38
69 67 100 100 100 100 100 100 99 92 84 99 81 80 90 100 100 97 100 100 100 100 100 70 99 31 24 6 0 0 0 0 0 0 0 0 0 0 0 0 0 59 64 100 100 100 100 100 100
100 100 100 100 100 100 48 87 100 100 100 100 100 94 100 100 100 100 100 98 100 100 42 37 31 79 21 0 0 0 0 0 0 0 0 0 0 0 0 42 0 3 54 96 100 100 100 100 100
100 100 100 100 93 99 100 100 100 100 100 100 100 100 100 100 100 100 100 100 93 100 100 43 24 24 11 0 0 0 0 0 0 0 0 0 0 0 0 5 53 3 4 76 77 100 100 100 100
100 100 100 100 100 100 100 100 100 100 100 100 100 100 100 100 100 100 100 100 100 98 98 100 66 14 30 31 0 0 0 0 0 0 0 0 0 0 0 0 1 2 0 23 99 100 100 100 100
100 100 100 100 100 100 100 100 100 100 100 100 100 100 100 100 100 100 100 100 100 100 100 93 100 100 100 72 38 25 5 5 3 0 0 0 0 0 0 0 0 0 0 4 36 52 100 100 100